Location: Chavannes
(47.1090°N, 0.2226°W)
Time: 13:11:40
(UTC+00:00)

USA 186 - Pass Details

Date: 16 October 2021
Orbit: 260 x 423 km, 96.9° (Epoch: 10 October)

Event Time Altitude Azimuth Distance (km) Brightness Sun altitude
Exits shadow 19:04:38 11° 9° (N) 1,449 4.4 -20.0°
Drops below altitude 10° 19:04:45 10° 8° (N) 1,495 4.5 -20.0°
Sets 19:06:49 0° 358° (N) 2,330 5.7 -20.4°
